Skip Page Navigation
NASA JPL Caltech
NASA Logo - Jet Propulsion Laboratory + View the NASA Portal
+ Center for Near-Earth Object Studies
JPL Home Earth Solar System Stars & Galaxies Technology
JPL Solar System Dynamics
BODIES ORBITS EPHEMERIDES TOOLS PHYSICAL DATA DISCOVERY FAQ SITE MAP
IMPORTANT: The SSD Announcement email list is now available. Major changes are coming in the near future, including possible hostname and/or URL changes. To be notified of such changes, subscribe to this email list.

Please visit this page for more details.


JPL Small-Body Database Browser
Search: [ help ]  
14152 (1998 SV73)
Classification: Main-belt Asteroid          SPK-ID: 2014152
Ephemeris | Orbit Diagram | Orbital Elements | Mission Design | Physical Parameters | Discovery Circumstances ]

[ show orbit diagram ]
Orbital Elements at Epoch 2458600.5 (2019-Apr-27.0) TDB
Reference: JPL 23 (heliocentric ecliptic J2000)
 Element Value Uncertainty (1-sigma)   Units 
e .1592593814966801 5.0987e-08  
a 2.300133630223727 7.9488e-09 au
q 1.933815770914583 1.172e-07 au
i 7.097433221752989 7.3291e-06 deg
node 42.81132377431542 3.2298e-05 deg
peri 288.027774167803 3.9307e-05 deg
M 356.5560596427919 2.2683e-05 deg
tp 2458612.689366900095
(2019-May-09.18936690)
8.0295e-05 TDB
period 1274.171916145356
3.49
6.6049e-06
1.808e-08
d
yr
n .2825364422479796 1.4646e-09 deg/d
Q 2.666451489532871 9.2147e-09 au
  Orbit Determination Parameters
   # obs. used (total)      983  
   data-arc span      10277 days (28.14 yr)  
   first obs. used      1991-09-11  
   last obs. used      2019-10-31  
   planetary ephem.      DE431  
   SB-pert. ephem.      SB431-N16  
   condition code      0  
   norm. resid. RMS      .55031  
   source      ORB  
   producer      Otto Matic  
   solution date      2019-Nov-07 03:47:04  

Additional Information
 Earth MOID = .936975 au 
 Jupiter MOID = 2.69921 au 
 T_jup = 3.565 
[ show covariance matrix ]

Ephemeris | Orbit Diagram | Orbital Elements | Mission Design | Physical Parameters | Discovery Circumstances ]

Physical Parameter Table
Parameter Symbol Value Units Sigma Reference Notes
absolute magnitude H 15.1   n/a MPO302153  

14152 (1998 SV73)          Discovered 1998-Sep-21 by Elst, E. W. at La Silla
Reference: 20000320/Numbers.arcLast Updated: 2004-04-19

Alternate Designations
 1998 SV73 = 1991 RD27 
Ephemeris | Orbit Diagram | Orbital Elements | Mission Design | Physical Parameters | Discovery Circumstances ]
ABOUT SSD CREDITS/AWARDS PRIVACY/COPYRIGHT GLOSSARY LINKS
FirstGov
(server date/time)  
NASA Home Page
Site Manager:   Ryan S. Park
Webmaster  Alan B. Chamberlin